Stations météo

réclame
Mon MeteoGroup
Westdorpe aws, Pays-Bas (6319): Température de l'air & dewpoint: 16.10.2018 16:00:00 - 22.10.2018 16:00:00 (CEST)Westdorpe aws, Pays-Bas (6319): Température de l'air 5cm: 16.10.2018 16:00:00 - 22.10.2018 16:00:00 (CEST)Westdorpe aws, Pays-Bas (6319): Vitesse du vent & gusts: 16.10.2018 16:00:00 - 22.10.2018 16:00:00 (CEST)Westdorpe aws, Pays-Bas (6319): Direction du vent: 16.10.2018 16:00:00 - 22.10.2018 16:00:00 (CEST)Westdorpe aws, Pays-Bas (6319): reduced air pressure: 16.10.2018 16:00:00 - 22.10.2018 16:00:00 (CEST)Westdorpe aws, Pays-Bas (6319): visibility: 16.10.2018 16:00:00 - 22.10.2018 16:00:00 (CEST)Westdorpe aws, Pays-Bas (6319): Quantités de précipitations: 16.10.2018 16:00:00 - 22.10.2018 16:00:00 (CEST)
Date & Time tt [°C] td [°C] tt 5cm [°C] ff [km/h] ff [knt] fx [km/h] fx [knt] dd ppp [hPa] vv [km] rr [mm]
22.10.2018 16:00:00 14,6 6,4 12,6 18 10 29 16 N 1034,0 29 0,0
22.10.2018 15:00:00 15,3 7,3 14,5 22 12 32 18 N 1034,1 24 0,0
22.10.2018 14:00:00 14,4 7,0 14,7 22 12 36 19 N 1033,8 23 0,0
22.10.2018 13:00:00 15,1 7,1 13,7 22 12 36 19 N 1033,9 32 0,0
22.10.2018 12:00:00 14,4 7,9 14,3 22 12 32 18 NNE 1033,6 32 0,0
22.10.2018 11:00:00 13,7 8,3 13,0 22 12 32 18 N 1033,3 26 0,0
22.10.2018 10:00:00 13,3 8,5 11,9 22 12 36 19 N 1032,5 28 0,0
22.10.2018 09:00:00 13,0 9,7 11,6 22 12 36 19 N 1031,4 25 0,0
22.10.2018 08:00:00 13,1 11,3 12,0 25 14 43 23 N 1030,5 18 0,1
22.10.2018 07:00:00 13,1 12,4 12,6 18 10 32 18 N 1029,6 10 0,0
22.10.2018 06:00:00 13,6 12,6 12,8 18 10 36 19 N 1029,0 19 0,0
22.10.2018 05:00:00 13,8 13,1 13,1 18 10 36 19 N 1028,3 16 0,3
22.10.2018 04:00:00 12,3 11,9 11,6 7 4 11 6 WNW 1027,9 1,3 0,0
22.10.2018 03:00:00 11,8 10,4 10,6 7 4 11 6 NW 1027,7 6 0,0
22.10.2018 02:00:00 10,3 9,1 7,7 7 4 7 4 WSW 1027,7 7 0,0
22.10.2018 01:00:00 8,8 7,9 7,4 4 2 4 2 W 1027,5 9 0,0
22.10.2018 00:00:00 8,2 7,6 5,3 4 2 4 2 S 1027,4 6 0,0
21.10.2018 23:00:00 9,5 8,8 7,5 4 2 4 2 S 1027,2 10 0,0
21.10.2018 22:00:00 9,0 8,2 5,1 0 0 4 2 N 1027,1 8 0,0
21.10.2018 21:00:00 9,5 7,5 6,4 0 0 4 2 N 1026,7 11 0,0
21.10.2018 20:00:00 13,0 9,1 9,6 4 2 4 2 SW 1026,6 17 0,0
21.10.2018 19:00:00 14,5 9,7 13,1 4 2 7 4 SSE 1026,6 20 0,0
21.10.2018 18:00:00 15,9 9,2 15,6 7 4 11 6 SSE 1026,7 19 0,0
21.10.2018 17:00:00 17,3 9,1 18,2 4 2 11 6 SSE 1027,0 24 0,0
21.10.2018 16:00:00 17,7 8,5 18,8 4 2 11 6 S 1027,3 20 0,0
21.10.2018 15:00:00 17,2 8,7 18,9 7 4 11 6 S 1027,8 17 0,0
21.10.2018 14:00:00 16,0 7,4 17,4 4 2 14 8 SE 1028,2 4,0 0,0
21.10.2018 13:00:00 15,4 7,7 16,3 7 4 14 8 SSE 1028,9 8 0,0
21.10.2018 12:00:00 14,0 7,7 14,2 4 2 14 8 S 1029,3 8 0,0
21.10.2018 11:00:00 12,1 8,1 12,0 4 2 7 4 SSE 1029,4 7 0,0
21.10.2018 10:00:00 9,7 7,5 9,2 7 4 11 6 S 1029,6 4,0 0,0
21.10.2018 09:00:00 8,0 7,1 7,4 4 2 14 8 SSE 1029,3 4,9 0,0
21.10.2018 08:00:00 6,1 5,6 4,1 4 2 7 4 SE 1029,2 3,1 0,0
21.10.2018 07:00:00 7,2 6,5 5,4 0 0 14 8 N 1029,2 6 0,0
21.10.2018 06:00:00 7,4 7,1 6,9 4 2 7 4 S 1029,4 4,3 0,0
21.10.2018 05:00:00 6,2 6,1 5,0 4 2 11 6 SE 1029,6 4,2 0,0
21.10.2018 04:00:00 4,8 4,4 2,7 4 2 4 2 ESE 1030,1 3,9 0,0
21.10.2018 03:00:00 4,7 4,4 2,4 4 2 7 4 SE 1030,2 8 0,0
21.10.2018 02:00:00 4,4 4,2 1,3 0 0 4 2 N 1030,7 5 0,0
21.10.2018 01:00:00 4,4 4,3 1,7 0 0 4 2 N 1031,2 6 0,0
21.10.2018 00:00:00 5,1 5,0 1,8 0 0 4 2 N 1031,2 5 0,0
20.10.2018 23:00:00 5,4 4,7 2,1 0 0 4 2 N 1031,3 6 0,0
20.10.2018 22:00:00 5,5 4,7 2,4 4 2 4 2 S 1031,4 14 0,0
20.10.2018 21:00:00 6,6 5,5 2,9 0 0 4 2 N 1031,4 16 0,0
20.10.2018 20:00:00 8,7 7,0 4,2 0 0 7 4 N 1031,5 30 0,0
20.10.2018 19:00:00 9,9 6,9 7,4 7 4 11 6 ENE 1031,2 34 0,0
20.10.2018 18:00:00 14,3 8,3 13,3 4 2 7 4 NNE 1030,8 29 0,0
20.10.2018 17:00:00 16,1 6,9 15,8 4 2 7 4 NNE 1031,0 36 0,0
20.10.2018 16:00:00 15,3 6,6 15,4 4 2 7 4 E 1031,3 31 0,0
20.10.2018 15:00:00 15,4 7,0 16,5 7 4 11 6 ESE 1031,5 17 0,0
20.10.2018 14:00:00 15,1 6,7 15,8 4 2 7 4 E 1032,1 11 0,0
20.10.2018 13:00:00 14,3 7,1 15,2 4 2 7 4 SSW 1032,5 19 0,0
20.10.2018 12:00:00 12,7 8,7 12,9 7 4 11 6 S 1032,2 12 0,0
20.10.2018 11:00:00 10,8 8,8 11,5 4 2 7 4 SE 1032,1 8 0,0
20.10.2018 10:00:00 7,4 7,4 6,3 0 0 4 2 N 1031,7 3,9 0,0
20.10.2018 09:00:00 4,9 4,8 3,1 4 2 4 2 SSW 1031,1 1,1 0,0
20.10.2018 08:00:00 3,8 3,7 2,4 0 0 4 2 N 1030,3 1,4 0,0
20.10.2018 07:00:00 4,0 3,7 2,1 0 0 4 2 N 1030,1 0,1 0,0
20.10.2018 06:00:00 4,0 3,9 2,4 0 0 4 2 N 1029,7 0,5 0,0
20.10.2018 05:00:00 3,4 3,2 1,4 0 0 4 2 N 1029,2 0,6 0,0
20.10.2018 04:00:00 3,6 3,4 1,0 4 2 4 2 W 1028,8 0,1 0,0
20.10.2018 03:00:00 5,0 4,8 0,5 4 2 7 4 NNW 1028,7 0,1 0,0
20.10.2018 02:00:00 5,1 4,8 1,2 4 2 11 6 NW 1028,8 1,5 0,0
20.10.2018 01:00:00 5,8 5,7 1,6 4 2 7 4 E 1028,0 1,3 0,0
20.10.2018 00:00:00 7,3 6,9 2,5 4 2 7 4 E 1027,8 10 0,0
19.10.2018 23:00:00 8,0 6,9 5,8 7 4 14 8 NNE 1027,7 11 0,0
19.10.2018 22:00:00 9,1 7,6 5,5 11 6 14 8 N 1027,6 16 0,0
19.10.2018 21:00:00 10,2 8,3 7,7 11 6 18 10 N 1027,0 18 0,0
19.10.2018 20:00:00 11,0 8,9 7,5 11 6 18 10 N 1026,4 20 0,0
19.10.2018 19:00:00 11,2 7,9 8,2 7 4 14 8 N 1025,6 45 0,0
19.10.2018 18:00:00 13,8 9,4 12,5 11 6 18 10 N 1025,4 29 0,0
19.10.2018 17:00:00 15,4 9,4 14,7 14 8 18 10 NNE 1024,8 32 0,0
19.10.2018 16:00:00 16,1 9,2 16,0 14 8 18 10 NNE 1024,7 24 0,0
19.10.2018 15:00:00 16,1 10,2 16,8 11 6 18 10 N 1024,8 19 0,0
19.10.2018 14:00:00 15,4 10,2 16,8 7 4 14 8 NE 1025,2 19 0,0
19.10.2018 13:00:00 14,6 9,9 15,8 7 4 14 8 NNE 1025,3 16 0,0
19.10.2018 12:00:00 13,5 9,4 15,1 7 4 11 6 NNE 1025,7 17 0,0
19.10.2018 11:00:00 12,1 9,1 12,2 7 4 14 8 ENE 1025,4 20 0,0
19.10.2018 10:00:00 10,8 8,8 10,5 11 6 14 8 NE 1025,2 20 0,0
19.10.2018 09:00:00 10,1 8,4 9,6 11 6 14 8 NE 1025,0 19 0,0
19.10.2018 08:00:00 10,0 8,4 9,4 7 4 14 8 NNE 1024,8 22 0,0
19.10.2018 07:00:00 10,4 8,4 9,9 11 6 14 8 NNE 1024,9 27 0,0
19.10.2018 06:00:00 10,6 8,3 10,1 11 6 18 10 NE 1024,7 30 0,0
19.10.2018 05:00:00 11,0 8,4 10,6 11 6 18 10 NE 1024,8 37 0,0
19.10.2018 04:00:00 11,4 8,5 10,6 11 6 18 10 NE 1024,8 38 0,0
19.10.2018 03:00:00 10,7 8,2 9,6 7 4 18 10 NE 1024,8 40 0,0
19.10.2018 02:00:00 12,4 9,2 11,8 11 6 18 10 NE 1024,7 46 0,0
19.10.2018 01:00:00 12,6 9,4 12,0 7 4 18 10 NE 1024,9 47 0,0
19.10.2018 00:00:00 13,1 9,1 12,5 11 6 22 12 NE 1025,2 40 0,0
18.10.2018 23:00:00 13,2 9,1 12,6 14 8 25 14 NE 1025,3 49 0,0
18.10.2018 22:00:00 13,3 8,8 12,7 18 10 25 14 NE 1025,4 49 0,0
18.10.2018 21:00:00 13,5 8,6 12,8 14 8 29 16 NNE 1025,4 49 0,0
18.10.2018 20:00:00 14,1 8,6 13,3 18 10 25 14 NNE 1024,9 49 0,0
18.10.2018 19:00:00 14,3 9,0 13,6 14 8 22 12 NNE 1024,6 49 0,0
18.10.2018 18:00:00 14,8 9,0 14,1 14 8 29 16 NE 1024,4 49 0,0
18.10.2018 17:00:00 15,5 10,0 15,1 14 8 25 14 NE 1024,4 42 0,0
18.10.2018 16:00:00 15,8 10,2 15,3 18 10 29 16 NE 1024,7 34 0,0
18.10.2018 15:00:00 15,9 10,6 14,9 18 10 32 18 NE 1024,8 31 0,0
18.10.2018 14:00:00 15,6 10,5 15,5 18 10 32 18 NE 1024,9 33 0,0
18.10.2018 13:00:00 15,9 11,1 14,9 22 12 29 16 NNE 1025,2 27 0,0
18.10.2018 12:00:00 15,2 12,0 14,9 22 12 29 16 NE 1025,3 23 0,0
18.10.2018 11:00:00 14,3 12,1 13,8 18 10 25 14 NNE 1025,2 21 0,0
18.10.2018 10:00:00 13,6 12,3 12,9 11 6 18 10 NNE 1024,6 17 0,0
18.10.2018 09:00:00 12,9 12,6 12,5 11 6 14 8 NNE 1024,3 6 0,0
18.10.2018 08:00:00 12,0 11,6 10,6 11 6 14 8 NNE 1023,9 7 0,0
18.10.2018 07:00:00 9,8 9,7 6,9 4 2 11 6 NE 1023,5 6 0,0
18.10.2018 06:00:00 10,3 10,1 7,4 7 4 7 4 NE 1023,3 5 0,0
18.10.2018 05:00:00 8,5 8,3 5,4 4 2 7 4 NNE 1023,1 0,3 0,0
18.10.2018 04:00:00 10,1 9,9 6,6 4 2 14 8 NE 1023,1 4,8 0,0
18.10.2018 03:00:00 10,8 10,3 7,3 11 6 14 8 NNE 1023,1 13 0,0
18.10.2018 02:00:00 9,4 9,3 6,4 7 4 7 4 NNW 1022,9 7 0,0
18.10.2018 01:00:00 10,1 9,7 8,0 4 2 4 2 W 1022,7 7 0,0
18.10.2018 00:00:00 10,1 9,9 7,2 4 2 4 2 NW 1022,6 11 0,0
17.10.2018 23:00:00 10,4 10,0 6,2 4 2 7 4 NW 1022,2 1,8 0,0
17.10.2018 22:00:00 10,7 10,2 6,6 7 4 7 4 N 1021,8 13 0,0
17.10.2018 21:00:00 11,0 9,7 8,0 4 2 11 6 NE 1021,4 28 0,0
17.10.2018 20:00:00 12,9 10,7 10,1 7 4 14 8 N 1020,9 44 0,0
17.10.2018 19:00:00 13,6 10,7 11,8 7 4 18 10 NNW 1020,4 44 0,0
17.10.2018 18:00:00 16,6 11,1 15,5 11 6 22 12 NNW 1019,9 46 0,0
17.10.2018 17:00:00 17,6 11,9 17,3 14 8 22 12 NNW 1020,0 37 0,0
17.10.2018 16:00:00 18,2 12,4 18,1 14 8 22 12 NNW 1019,7 35 0,0
17.10.2018 15:00:00 18,8 13,8 18,7 14 8 22 12 NW 1019,5 21 0,0
17.10.2018 14:00:00 18,5 13,3 18,5 7 4 18 10 W 1019,6 19 0,0
17.10.2018 13:00:00 18,1 13,3 18,3 4 2 11 6 WSW 1019,6 16 0,0
17.10.2018 12:00:00 17,2 14,0 18,2 7 4 11 6 W 1019,8 9 0,0
17.10.2018 11:00:00 16,1 14,2 15,9 7 4 11 6 WSW 1019,7 7 0,0
17.10.2018 10:00:00 13,6 13,3 14,6 4 2 4 2 SSW 1019,5 3,7 0,0
17.10.2018 09:00:00 8,8 8,5 7,2 4 2 4 2 SSE 1019,4 1,2 0,0
17.10.2018 08:00:00 8,3 8,2 6,2 4 2 4 2 SSE 1019,0 0,4 0,0
17.10.2018 07:00:00 8,2 7,9 6,3 4 2 7 4 S 1018,9 0,8 0,0
17.10.2018 06:00:00 9,0 8,9 7,1 4 2 7 4 SW 1018,5 0,1 0,0
17.10.2018 05:00:00 11,0 10,8 7,2 4 2 7 4 SSE 1018,2 0,8 0,0
17.10.2018 04:00:00 11,4 11,2 7,8 4 2 7 4 S 1018,3 0,2 0,0
17.10.2018 03:00:00 11,5 11,4 8,3 4 2 4 2 S 1018,4 2,0 0,0
17.10.2018 02:00:00 12,3 11,6 8,3 4 2 11 6 SW 1018,3 4,2 0,0
17.10.2018 01:00:00 12,8 11,4 11,0 7 4 14 8 W 1018,4 6 0,0
17.10.2018 00:00:00 11,9 9,5 8,4 7 4 25 14 SW 1018,2 16 0,0
16.10.2018 23:00:00 12,1 10,0 8,8 4 2 11 6 S 1018,0 21 0,0
16.10.2018 22:00:00 14,3 10,1 11,2 7 4 14 8 SSE 1017,9 31 0,0
16.10.2018 21:00:00 12,6 10,9 9,3 0 0 7 4 N 1017,9 26 0,0
16.10.2018 20:00:00 14,2 11,1 10,9 4 2 7 4 SE 1017,9 32 0,0
16.10.2018 19:00:00 18,6 11,1 13,7 4 2 4 2 S 1017,6 48 0,0
16.10.2018 18:00:00 22,5 10,7 21,0 4 2 11 6 SSE 1017,3 44 0,0
16.10.2018 17:00:00 23,8 10,1 23,3 7 4 14 8 SSE 1017,5 39 0,0
16.10.2018 16:00:00 24,2 10,0 23,4 7 4 14 8 SSE 1017,7 39 0,0

tt = Température de l'air
td = dewpoint
tt 5cm = Température de l'air 5cm
ff = Vitesse du vent
fx = gusts
dd = Direction du vent
ppp = reduced air pressure
vv = visibility
rr = Quantités de précipitations

stations d'obs. à proximité